EHI
19 19 19 17 14 11 10 11 10 9 8 9 11 14 19 21 19 17 16 11 5 2 1 0 0 0 0 0 0 0 0 0 0 0 0 0 0 0
21 22 21 19 18 17 16 16 16 16 14 12 11 12 14 16 16 17 18 14 8 4 2 0 0 0 0 0 0 0 0 0 0 0 0 0 0 0
23 24 23 21 22 22 20 20 21 23 20 15 12 12 12 13 16 18 19 17 13 7 2 0 0 0 0 0 0 0 0 0 0 0 0 0 0 0
22 22 22 22 24 25 22 20 22 24 22 18 15 15 15 15 17 20 19 18 14 7 2 0 0 0 0 0 0 0 0 0 0 0 0 0 0 0
21 22 23 24 26 27 24 23 23 23 22 20 18 18 18 17 18 20 19 17 12 7 2 1 0 0 0 0 0 0 0 0 0 0 0 0 0 0
25 27 27 25 25 25 24 25 26 26 24 21 19 19 20 20 20 19 16 14 12 7 4 3 1 1 1 0 0 0 0 0 0 0 0 0 0 0
32 32 28 24 21 20 20 22 24 25 23 20 18 18 19 19 18 16 13 13 11 9 7 5 4 3 3 1 0 0 0 0 0 0 0 0 0 0
37 34 26 19 17 15 14 13 13 16 17 17 16 16 15 15 15 14 13 13 12 11 9 6 5 5 4 2 0 0 0 0 0 0 0 0 0 0
40 38 29 19 15 15 14 10 9 9 10 11 13 13 13 13 13 14 13 12 11 10 9 8 7 6 3 1 0 0 0 0 0 0 0 0 0 0
36 37 33 24 18 16 16 15 15 13 8 6 10 13 13 13 13 13 12 10 9 9 10 11 11 7 3 1 0 0 0 0 0 0 0 0 0 0
30 31 29 24 17 14 15 19 20 17 11 7 7 10 10 9 9 9 10 9 7 8 11 13 12 10 7 3 1 0 0 0 0 0 0 0 0 0
27 25 22 16 11 10 13 18 20 17 12 9 6 6 7 6 6 7 8 8 7 7 9 11 10 9 8 5 2 1 1 1 1 0 0 0 0 0
25 23 19 11 6 6 9 14 15 13 10 8 8 7 7 6 6 8 9 9 9 8 9 10 9 7 7 5 3 1 1 2 2 1 1 1 0 0
24 21 15 7 3 2 4 7 8 7 7 8 9 8 8 7 8 9 11 11 11 10 10 10 8 6 6 5 4 3 2 3 3 3 2 2 1 0
17 13 7 3 1 1 1 2 3 6 8 8 8 7 6 6 7 9 11 12 11 9 9 9 8 6 5 5 4 4 4 3 3 3 3 3 1 1
6 4 2 1 2 3 3 2 5 8 9 9 8 6 5 4 5 7 9 10 9 7 7 8 8 6 5 5 5 5 5 4 3 3 3 3 3 2
2 3 3 3 6 8 8 7 8 9 9 9 8 6 4 3 4 5 6 6 5 5 6 8 9 7 6 5 5 6 5 4 4 3 3 3 3 3
5 7 8 8 9 11 12 12 11 10 10 10 8 7 4 3 3 4 4 5 4 4 6 7 9 8 6 5 5 6 6 6 5 4 3 3 3 3
8 10 11 11 11 11 13 14 12 10 10 10 9 7 5 4 3 3 4 5 6 6 6 7 7 7 6 4 4 5 5 6 6 5 4 3 3 3
8 10 11 11 11 11 12 13 11 9 9 9 8 7 6 5 4 4 4 5 6 6 6 6 6 6 6 5 4 4 4 4 4 5 5 4 3 3
5 6 8 9 9 10 11 12 10 8 7 7 7 6 6 6 6 6 5 5 6 6 6 6 6 5 5 5 4 4 3 3 3 4 4 4 3 3
4 4 4 6 6 9 12 12 11 8 7 6 6 6 6 6 6 6 6 6 6 6 6 6 6 5 4 4 3 3 3 3 3 2 2 3 2 1
6 4 4 4 4 7 12 12 10 8 7 6 6 6 6 6 6 6 6 6 6 6 6 6 6 5 4 3 3 3 3 3 3 2 1 1 1 0
Wind_Speed
2 1 2 2 1 2 1 1 1 1 1 1 1 2 2 2 4 3 3 6 7 6 6 5 5 5 5 5 5 4 4 4 3 3 4 4 4 4
1 1 2 2 1 1 1 1 1 1 1 0 1 1 2 2 4 3 4 6 6 7 6 6 5 5 5 5 5 5 5 4 4 3 3 3 3 4
2 1 2 2 2 2 1 1 1 1 1 0 1 1 2 2 2 2 3 3 4 6 6 6 5 5 5 5 6 6 5 5 4 4 3 3 3 4
2 1 2 2 1 1 1 1 0 0 1 1 0 0 0 1 1 2 2 3 3 5 7 6 5 5 5 5 5 5 5 5 5 4 4 4 4 4
1 1 1 1 1 1 1 1 0 0 1 1 1 0 0 1 1 1 2 2 3 4 6 5 5 5 5 5 5 5 5 5 5 5 5 4 4 4
1 1 1 0 1 1 1 1 1 1 1 1 1 1 1 1 1 1 1 1 2 2 3 4 5 5 5 5 5 5 5 5 5 5 5 4 4 4
1 1 1 1 1 1 1 1 1 1 1 1 1 1 1 1 1 1 2 1 1 2 2 2 3 2 3 4 5 6 6 6 6 5 5 5 5 5
2 2 2 1 1 0 0 0 1 2 1 1 2 2 2 1 1 2 2 2 1 1 2 2 2 2 2 3 6 8 8 8 7 7 6 6 6 5
2 2 2 1 2 1 1 1 1 1 3 3 2 3 3 3 3 2 2 2 2 2 2 2 2 2 2 3 7 9 9 9 9 8 7 6 6 6
2 2 1 1 1 1 2 2 2 2 3 3 3 3 3 3 3 4 3 2 2 2 3 2 2 2 2 2 6 9 9 10 10 9 8 7 6 6
2 2 2 2 2 2 2 2 2 1 1 2 2 2 2 3 3 2 3 3 2 2 3 2 2 2 1 2 4 8 9 9 10 9 9 8 7 6
3 2 2 2 1 1 2 3 3 2 1 1 1 2 3 4 5 4 4 4 3 2 3 3 2 2 1 2 3 4 5 7 9 9 9 8 7 4
2 2 2 3 2 2 3 3 4 3 2 3 3 3 3 3 3 4 3 3 3 2 2 2 2 2 2 2 2 3 4 4 5 6 8 9 9 7
2 1 1 3 3 4 4 4 4 3 3 2 2 2 2 2 3 3 3 3 2 2 2 2 2 2 2 2 2 3 4 4 4 5 5 8 8 9
1 1 1 3 3 4 6 5 4 3 3 3 3 3 2 2 2 2 2 2 2 2 2 2 2 2 2 2 2 2 3 4 5 5 5 5 6 5
2 2 3 5 5 5 4 4 4 3 3 3 2 2 2 2 2 2 2 2 2 2 2 3 2 2 2 2 2 3 3 3 4 4 4 4 5 5
2 3 3 3 3 3 3 3 3 3 3 2 2 2 2 2 2 2 2 2 3 2 2 2 2 2 3 2 2 3 3 3 3 4 3 4 4 5
3 4 4 4 4 3 3 3 3 3 3 3 2 2 2 2 2 2 3 3 3 3 3 3 3 2 2 2 4 4 3 3 3 3 3 4 4 4
4 5 4 4 3 3 3 3 3 3 2 2 3 2 2 2 2 2 2 2 3 3 3 3 3 4 4 4 4 6 4 3 3 3 4 4 4 4
5 5 4 3 3 3 3 3 2 2 2 3 2 2 2 2 2 2 3 3 3 3 3 3 3 4 4 4 3 3 6 5 4 4 3 3 2 2
5 4 4 4 3 3 2 2 2 2 3 2 2 2 2 2 3 3 3 3 3 3 3 3 4 5 3 2 3 2 3 5 5 4 3 3 3 3
4 4 4 4 3 3 3 3 3 3 3 3 2 2 2 2 3 3 3 3 3 3 3 2 2 3 3 4 4 3 3 2 3 4 3 4 3 4
4 3 3 4 3 2 2 3 3 2 2 2 2 3 3 3 3 3 3 3 2 3 3 2 2 3 4 4 4 3 3 3 3 3 3 5 6 4
Wind_Direction
269 270 275 299 297 305 300 238 216 250 296 322 13 50 73 94 116 131 126 136 140 140 146 152 155 157 160 160 157 152 158 165 170 177 186 194 196 196
266 299 303 305 309 301 294 294 239 204 242 336 19 29 41 81 108 126 120 123 131 136 139 140 145 152 156 158 154 148 148 150 156 161 169 176 177 176
285 274 273 281 297 309 318 298 253 138 163 13 43 51 61 79 102 134 136 132 131 137 139 140 141 146 153 154 154 153 154 154 155 153 145 143 143 144
252 261 260 263 266 291 314 302 288 215 157 153 21 33 36 149 152 160 155 148 136 135 142 143 144 142 139 140 146 154 159 157 150 147 142 137 139 140
250 243 267 283 283 287 276 287 256 153 108 135 212 213 175 188 150 155 136 128 138 137 142 149 147 148 144 142 139 145 158 157 151 149 148 145 144 142
247 229 247 312 296 283 270 269 202 149 140 154 180 199 187 195 164 145 125 131 148 160 133 138 141 150 154 153 154 156 158 159 158 154 151 148 144 138
247 229 135 100 47 328 290 268 227 201 176 171 192 213 200 181 189 180 164 146 150 164 153 152 149 157 167 174 179 176 170 169 166 163 158 153 150 145
234 240 197 174 148 132 353 209 217 214 204 202 216 216 218 206 201 195 174 173 214 185 155 178 169 172 178 179 179 178 178 175 173 168 163 162 161 159
227 245 255 229 188 198 179 170 197 242 224 223 223 231 225 212 199 204 204 207 211 184 162 193 177 188 201 189 175 179 180 179 176 172 169 169 169 170
225 226 244 268 294 259 212 191 196 218 226 215 218 229 225 212 201 198 192 196 221 208 181 198 190 197 201 181 180 182 187 187 184 179 176 180 184 185
221 212 220 224 277 269 218 219 215 204 208 191 186 197 206 211 196 183 193 194 221 224 201 191 187 185 190 194 189 188 187 190 191 188 188 190 192 187
205 199 185 198 227 239 216 229 234 231 216 201 200 204 208 210 210 206 202 207 212 220 210 191 195 181 208 209 186 181 186 192 195 198 199 200 197 191
224 207 201 188 197 221 231 239 241 250 234 209 207 202 200 203 207 213 212 203 211 227 198 182 197 197 191 192 188 188 186 184 186 200 207 208 202 193
245 234 199 193 207 222 227 239 243 248 243 226 219 214 206 203 206 212 218 204 200 210 200 187 195 199 198 209 202 188 193 193 185 190 194 198 207 209
282 297 233 224 234 233 230 231 226 229 224 224 225 223 213 200 191 197 200 190 202 218 196 191 198 201 196 207 214 191 191 201 193 193 191 191 193 195
247 254 236 232 238 238 226 225 219 223 223 224 223 217 198 189 196 191 191 193 203 224 207 198 205 209 220 224 210 209 197 195 192 194 193 199 196 196
212 231 237 225 220 218 216 210 209 211 223 225 223 220 209 200 197 185 188 203 215 213 204 203 213 212 216 219 223 217 213 205 195 190 195 210 205 195
202 234 233 228 226 224 220 216 216 216 215 211 215 220 213 203 202 202 201 207 215 215 207 201 195 203 230 241 215 224 227 223 210 200 203 209 215 198
216 241 241 234 233 230 223 219 220 213 209 216 211 210 209 213 209 211 210 217 223 220 216 204 200 205 224 237 234 213 216 216 209 210 209 207 217 204
232 240 242 244 242 237 230 230 224 205 203 223 223 212 210 219 224 220 215 222 229 232 230 216 211 214 228 242 239 226 211 210 208 215 215 209 204 181
236 245 246 244 240 231 227 231 230 215 203 207 215 216 219 227 235 232 224 228 234 237 240 234 227 223 237 249 247 229 214 216 215 209 205 205 209 210
245 244 246 251 240 229 216 220 226 218 207 205 208 208 221 227 239 245 234 228 237 246 251 245 229 218 222 235 244 239 221 214 226 221 216 204 199 210
251 253 255 260 248 234 225 227 236 235 210 205 210 213 220 225 235 237 237 239 243 254 251 243 231 222 226 232 242 240 231 220 211 205 225 227 219 217